sat.trackr.live / text

‹ back to catalog

STARLINK-30816

NORAD 58162 · 2023-166N

PAYLOAD ACTIVE UNKNOWN

§ Identity

Operator
Country
US
Launch date
2023-10-29
Launch site
AFWTR
Launch vehicle
Mass (kg)
RCS (m²)

Purposes: comms

External: N2YO · Heavens-Above · Gunter

§ Orbital elements

Epoch: 2026-09-20T21:59:08.019456Z

Period
93.84 min
Inclination
53.1632°
Eccentricity
0.0001059
Mean motion
15.34460649 rev/d
Perigee alt
461.8 km
Apogee alt
463.2 km
Semi-major
6,840.7 km
B*
-1.2139e-3
RAAN
31.7957°
Arg perigee
85.2492°
Mean anomaly
274.8632°
Rev number
16,308

§ Raw data

STARLINK-308161 58162U 23166N   26263.91606504 -.00041246  00000+0 -12139-2 0  99962 58162  53.1632  31.7957 0001059  85.2492 274.8632 15.34460649163083

JSON: /api/v1/satellites/58162 · /tle

For live sub-satellite position, see the globe view (requires WebGL).

§ Visibility from observer

Set your observer location to see the next 7 days of passes ≥ 10°. The values pass through the URL so the page stays shareable.

No JS? Fill the form by hand. The geolocation button needs JavaScript.